Back to catalog

TITAN 3C TRANSTAGE DEB

AliveMEO
NORAD 43514·DEBRIS·🇺🇸 United States

Launched Feb 9, 1969 from Cape Canaveral Space Force Station

Loading…

Next Passes (next 24 hours)

TLE

FreshSource: Space-Track

Epoch: Sep 13, 2026, 19:54 UTC

1 43514U 69013S   26256.82930299 -.00000295  00000-0  00000-0 0  9996
2 43514   1.7342  64.4729 0217945  53.0515 309.6983  0.97800640879225

Track TITAN 3C TRANSTAGE DEB in real time with AllMySat

Download on the App Store